User: anonymous   Login
Location: Mentone
(34.5413°N, 85.5351°W)
Time: 15:47:17
(UTC-05:00)
Language:

Centaur AC-72 - Orbit

View from above orbital plane
View from above orbital plane
View from above satellite
View from above satellite

Ground track
Ground track

The orbit data is extracted from the following two-line orbital elements,

1 21907U 92013B   16242.52253925 -.00000294  00000-0  00000+0 0  9997
2 21907  19.6427   2.5256 6957171 342.0007  17.0464  2.25603662201694
Epoch (UTC): 29 August 2016 12:32:27
Eccentricity: 0.6957171
inclination: 19.6427°
perigee height: 1094 km
apogee height: 35263 km
right ascension of ascending node: 2.5256°
argument of perigee: 342.0007°
revolutions per day: 2.25603662
mean anomaly at epoch: 17.0464°
orbit number at epoch: 20169

The dashed part of the orbit path shows where the satellite is in the earth's shadow,  

DLR